Theta_e
325 328 329 330 330 329 327 324 323 324 325 322 319 319 328 334 325 326 348 350 333 336 343 342 349 352 345 345 352 356 357 361 360 353 349 349 348 350 352 351 355 357 360 364 365 366 366 364 364 367 365 365 365 364 365 365 366 368 369 369 368 367 366 363 362 362 362 361 361 361 361 360 359 359 358 357 356 356 358 357 357 357 358 359 359 359 359
324 326 329 330 330 329 329 328 327 326 325 324 321 323 329 334 331 339 356 351 338 337 340 341 349 350 343 346 353 350 351 356 359 354 350 347 346 351 354 355 356 358 358 362 362 362 367 366 365 367 367 366 366 365 365 364 365 367 369 370 369 368 367 366 364 362 362 362 361 361 361 360 360 359 358 358 356 355 356 357 357 356 356 357 359 359 359
325 326 329 330 329 329 327 327 331 328 326 324 322 323 326 330 330 332 346 347 339 336 342 345 347 351 348 349 350 350 350 351 353 353 351 348 349 353 354 353 355 357 358 361 360 362 366 365 365 366 368 368 366 365 366 365 365 366 367 369 369 368 368 368 365 363 363 362 362 361 362 362 361 359 359 358 357 355 356 357 358 357 356 356 357 359 359
325 325 327 328 329 328 324 324 329 330 326 322 322 324 324 329 333 328 330 336 341 343 347 346 347 351 352 351 348 349 351 352 350 352 355 360 363 363 361 362 366 368 366 364 364 365 363 363 365 366 367 369 367 366 367 366 365 366 367 368 368 368 369 368 367 365 364 363 362 361 361 362 362 361 359 359 358 356 355 356 358 358 358 358 357 358 360
325 323 325 327 326 325 323 326 330 332 332 329 326 325 326 331 335 329 330 341 355 353 344 339 341 348 351 351 349 350 354 355 350 350 355 362 367 369 374 376 379 379 376 373 372 370 366 364 364 365 366 368 368 367 367 367 367 365 366 367 367 367 368 369 368 367 366 364 363 362 361 361 362 361 360 359 358 357 356 356 357 359 360 360 359 359 361
324 322 323 326 325 324 328 331 333 334 334 333 330 325 325 330 332 335 341 352 358 355 345 340 344 348 350 351 348 348 353 356 353 350 354 358 361 367 374 375 377 378 380 381 378 371 368 369 366 366 366 367 368 368 367 367 367 366 365 365 366 367 367 368 369 368 366 365 364 362 362 361 361 362 361 359 358 358 358 357 358 360 361 362 362 361 360
323 324 326 328 326 327 332 332 333 335 331 332 333 331 329 329 327 333 342 348 351 355 352 350 352 351 350 351 347 344 347 351 351 348 351 355 357 361 366 366 367 374 381 386 382 373 368 369 368 367 367 366 367 367 367 367 367 365 365 366 365 367 367 367 369 367 367 366 365 364 363 362 362 361 361 361 359 359 359 359 358 359 361 362 364 362 362
324 326 330 332 329 328 331 331 332 334 335 336 336 336 341 344 339 335 339 346 353 354 351 352 355 350 347 351 352 346 347 348 346 346 348 351 354 365 376 378 376 374 373 372 373 370 364 364 366 365 366 366 367 366 366 366 366 365 365 364 366 366 366 367 369 368 367 367 365 365 364 363 363 362 362 361 360 360 359 359 359 359 359 361 362 363 363
325 324 327 331 327 326 329 332 332 335 338 338 336 337 342 350 348 345 344 346 346 343 342 345 347 344 346 351 350 342 341 341 340 342 341 339 352 373 387 384 375 366 360 359 363 362 360 361 361 361 362 363 365 366 366 364 364 365 364 364 366 366 366 366 368 368 368 367 366 366 366 365 364 362 362 362 361 361 359 359 359 359 359 359 360 361 363
321 322 326 328 324 325 330 334 334 331 332 333 336 342 345 348 348 347 348 348 347 346 342 340 342 344 346 347 346 341 344 349 347 346 344 346 361 378 381 377 371 365 361 360 359 355 349 349 355 359 360 361 362 364 365 363 364 364 364 363 365 368 367 367 368 369 368 368 368 367 367 367 365 364 362 362 362 362 360 359 359 359 360 360 359 359 361
318 321 326 327 325 330 337 338 333 330 332 334 337 343 343 347 347 346 346 347 348 350 350 347 344 347 347 351 358 358 357 361 361 361 361 361 367 371 373 376 374 368 365 361 358 356 351 346 351 357 359 361 361 362 363 362 362 363 363 363 365 369 369 367 367 369 368 368 369 368 368 368 366 366 365 363 363 363 362 361 360 359 359 360 360 360 360
320 322 324 323 325 332 338 336 333 333 334 334 343 345 344 345 346 346 343 343 344 347 351 351 352 356 357 360 366 365 362 362 363 362 364 364 364 365 365 368 365 360 361 360 360 364 363 357 356 358 360 360 360 361 361 362 361 361 362 363 364 367 370 369 369 369 370 369 369 369 369 369 369 368 366 364 364 364 364 364 361 360 360 361 361 361 361
319 322 323 322 324 329 332 332 332 335 337 340 347 349 349 343 342 346 343 341 342 343 347 350 353 356 357 355 357 362 364 363 362 361 362 363 363 363 362 364 364 363 363 363 361 363 368 368 365 363 364 364 362 362 362 362 361 360 361 362 363 365 369 371 370 371 372 370 371 371 370 371 371 371 369 367 365 366 366 366 365 363 362 363 364 364 363
317 320 322 322 324 328 330 331 330 332 342 349 347 348 346 339 340 345 343 341 341 342 344 349 351 351 350 349 351 356 362 364 363 363 364 365 366 364 362 364 367 368 367 367 366 368 369 370 368 367 368 367 365 366 365 362 361 361 360 361 361 364 369 371 370 372 373 373 372 373 373 373 373 372 372 369 368 368 369 368 367 367 365 364 364 366 367
317 319 320 324 328 329 328 332 336 336 340 346 346 342 339 338 339 341 342 343 343 343 344 347 348 347 345 346 348 352 359 364 365 366 368 368 366 364 363 364 365 367 368 367 366 367 368 368 367 366 367 367 369 370 368 365 362 361 360 360 360 364 368 371 371 372 373 374 375 374 374 374 374 374 373 372 371 370 370 369 369 369 367 366 365 365 366
317 319 321 324 328 326 322 329 338 339 338 341 344 341 338 336 336 337 340 343 343 344 345 345 346 345 344 344 347 351 357 361 363 365 367 367 365 363 362 362 364 365 365 366 366 366 367 368 368 366 364 365 367 370 373 368 364 363 362 361 361 364 368 370 371 371 372 374 375 375 375 374 374 375 375 374 372 371 371 371 371 369 369 368 366 366 366
318 320 322 323 324 323 321 324 330 331 330 333 338 338 335 335 335 335 336 338 339 343 345 345 345 344 344 346 347 348 353 358 362 364 364 363 362 361 360 360 362 362 363 364 365 365 366 367 368 368 367 365 366 370 372 370 367 365 363 362 364 366 369 370 371 371 372 374 375 375 375 375 375 374 374 373 373 372 371 372 371 370 370 369 369 368 368
321 320 320 322 323 321 321 323 325 327 327 328 329 332 332 333 332 332 332 333 336 340 343 345 346 345 345 346 348 348 351 356 360 362 363 363 362 360 359 359 360 361 362 362 363 365 364 363 365 369 370 369 370 370 369 369 369 366 366 366 366 368 371 372 371 372 373 373 375 374 375 374 374 374 373 373 373 372 372 372 372 371 372 370 370 370 369
322 322 322 324 323 320 320 322 324 325 325 325 325 326 329 330 330 331 330 331 333 337 341 344 345 346 345 346 348 350 351 355 361 364 364 365 363 360 359 360 360 359 360 362 363 362 362 362 364 367 368 369 370 369 368 370 371 369 369 369 368 369 372 372 372 373 372 373 374 373 374 374 375 375 374 373 373 373 373 372 372 372 372 371 371 370 370
322 322 322 322 322 321 322 323 323 323 322 322 323 324 326 328 329 328 328 329 332 336 339 341 343 345 347 348 348 349 350 354 360 363 363 365 363 359 358 359 359 360 360 360 360 360 360 361 361 363 366 367 367 368 369 370 372 371 371 371 370 371 371 371 373 372 372 373 374 372 373 373 373 373 374 374 372 372 372 372 372 372 371 370 369 369 369
319 319 320 322 322 322 323 322 321 322 322 322 322 324 324 325 326 326 326 328 331 333 336 339 342 345 347 348 349 349 349 353 359 363 363 362 358 357 358 358 358 360 359 358 358 358 357 358 359 361 365 367 366 368 368 368 370 371 371 372 372 371 371 371 371 370 371 371 371 370 367 365 363 364 368 370 369 367 368 370 372 371 370 366 363 363 359
319 319 323 326 325 323 323 321 320 322 323 322 322 323 323 323 324 325 326 328 330 330 333 337 341 344 346 347 349 349 348 354 361 364 362 359 356 355 358 357 357 358 357 356 356 356 355 356 357 359 362 364 365 367 369 368 368 368 370 371 371 371 370 369 369 370 369 366 364 363 361 357 354 352 354 358 360 360 363 366 369 368 364 358 355 355 349
319 319 322 325 325 324 323 321 320 321 322 322 322 323 323 323 324 327 328 329 329 329 331 335 339 343 345 345 348 349 349 352 357 357 357 358 358 355 356 357 356 356 355 354 355 354 354 355 356 357 360 360 360 362 367 370 369 367 368 369 368 369 370 369 369 370 363 356 354 354 353 353 351 345 341 342 345 346 349 354 357 357 354 347 345 346 343
316 316 318 321 322 323 322 321 321 321 322 323 323 323 323 324 325 326 328 329 330 330 332 335 337 340 343 344 346 350 352 353 354 354 352 354 355 354 355 356 356 355 354 354 353 352 353 354 355 356 357 357 357 357 362 366 367 364 364 363 361 362 363 363 363 361 355 349 347 345 344 344 344 339 335 334 335 336 337 339 341 341 339 337 335 336 336
317 317 319 320 320 320 321 321 320 321 323 324 323 323 323 323 324 324 326 330 332 331 332 336 337 337 341 343 345 348 351 351 352 352 352 352 353 354 355 355 354 355 353 352 353 353 354 354 354 354 355 355 355 356 358 360 360 359 358 357 357 357 357 357 356 354 350 346 344 342 340 338 337 336 334 334 334 335 335 336 336 335 334 334 334 334 334
317 318 319 319 318 319 320 320 320 320 322 322 320 321 322 323 324 324 326 329 331 330 332 337 339 338 340 342 343 345 347 349 349 350 351 351 353 354 354 354 353 353 352 353 354 354 353 352 352 352 353 353 354 354 355 355 355 354 355 355 355 355 355 354 353 352 350 348 345 343 341 338 336 336 336 336 336 336 336 337 338 338 337 336 335 335 335
315 316 317 318 317 318 320 321 321 321 321 322 322 321 319 320 322 324 325 326 328 329 332 336 338 339 341 341 342 343 345 347 349 350 350 351 352 352 352 352 352 352 353 353 352 351 351 350 350 350 350 351 352 352 353 352 352 353 353 353 354 354 352 352 352 352 351 349 348 346 343 341 339 339 339 340 341 341 341 340 339 338 338 336 335 334 335
313 314 315 316 317 318 318 319 319 319 320 322 322 320 318 317 320 323 325 325 326 328 331 334 337 340 342 342 342 343 345 347 350 350 350 350 351 350 350 351 351 351 351 351 350 351 350 351 350 349 349 350 350 350 351 351 351 350 350 350 351 351 350 349 349 349 348 348 348 347 345 344 343 343 343 344 345 344 344 342 340 339 339 337 335 334 334
312 312 313 314 316 317 318 317 317 317 318 319 319 319 318 318 319 321 324 325 325 327 330 333 336 339 341 342 342 344 345 348 350 350 349 349 349 348 350 350 350 350 350 350 350 350 349 349 350 350 350 349 349 349 350 349 349 348 348 349 348 347 347 347 346 345 345 345 345 344 344 343 342 342 342 342 343 343 342 341 341 340 339 338 336 334 335
311 312 313 313 314 316 316 316 316 317 317 317 318 318 319 318 319 320 323 325 326 327 330 334 337 339 340 341 342 344 345 347 348 348 348 349 348 348 349 349 349 350 350 349 349 348 347 347 348 349 349 350 350 349 349 348 348 347 347 347 346 345 345 345 344 343 343 343 343 343 342 340 340 339 340 340 341 341 341 341 340 340 339 338 336 335 335
311 312 313 314 314 315 315 316 316 316 317 318 318 319 319 320 320 321 323 325 326 328 332 336 338 338 338 340 342 343 346 348 348 347 347 347 347 348 347 347 347 348 348 348 347 346 346 346 345 346 347 348 348 347 346 346 345 345 345 345 345 345 344 344 343 343 343 343 343 342 342 341 340 339 340 340 340 340 340 340 339 338 338 337 336 335 336
312 312 313 314 314 314 315 315 316 317 318 317 318 319 321 321 322 323 326 328 330 332 334 335 334 333 335 339 342 344 345 346 346 346 346 345 345 345 344 342 342 342 343 343 343 343 342 343 343 345 345 345 345 344 343 344 344 344 343 343 343 343 343 343 343 342 342 342 342 341 341 341 340 340 340 340 340 340 340 340 339 338 338 337 336 335 336
313 313 313 314 314 315 315 316 317 317 318 318 319 320 321 322 325 328 331 332 333 333 331 329 327 327 329 333 337 341 342 341 340 340 341 341 341 341 339 338 337 337 337 339 340 340 339 339 340 343 344 344 343 342 343 343 343 342 342 342 341 341 341 340 340 340 340 340 339 339 339 339 338 338 338 338 338 339 338 338 339 339 337 336 335 335 335
314 314 315 315 316 316 316 317 318 319 319 320 320 321 323 327 331 331 330 330 329 328 326 324 322 322 324 326 330 333 335 334 334 333 333 334 335 335 335 334 334 333 334 336 337 337 337 337 337 340 343 343 342 342 342 342 341 341 341 341 340 340 339 339 338 338 339 338 337 337 337 338 338 338 337 337 337 337 337 337 339 338 337 336 336 336 335
316 317 318 319 319 319 319 319 319 320 320 321 323 325 328 331 331 328 326 325 325 324 323 321 319 318 319 321 324 326 328 327 327 327 326 326 328 329 331 331 332 332 333 334 335 335 335 335 336 338 340 341 341 341 341 340 340 339 339 338 338 337 337 336 336 336 336 335 334 334 334 334 333 334 334 334 334 334 334 335 336 336 335 336 335 335 335
316 318 319 320 321 322 322 322 322 322 322 324 326 328 328 327 325 322 321 321 321 320 319 318 316 317 317 317 319 321 322 322 321 320 320 320 321 322 324 326 328 330 330 331 333 333 332 332 334 336 338 339 339 339 339 339 338 338 337 336 336 335 333 333 332 332 331 331 331 331 330 330 329 329 329 329 329 330 330 330 330 330 330 329 330 331 332
314 315 316 317 318 320 321 321 321 321 321 321 322 323 322 321 320 319 318 318 318 317 317 316 316 316 315 315 316 317 318 318 318 317 316 316 316 317 318 319 321 325 326 328 330 330 330 330 330 331 332 334 335 335 336 336 336 335 335 334 333 333 332 331 330 329 328 328 327 327 327 326 326 325 325 324 324 324 324 325 325 325 324 324 325 325 326
311 312 313 313 315 317 318 318 319 319 318 318 318 318 317 316 315 315 315 315 315 314 314 314 314 314 314 314 314 314 315 315 315 315 315 314 314 315 315 316 317 319 322 324 327 327 327 327 327 327 327 328 329 330 331 332 332 332 332 331 331 331 330 329 328 327 326 325 324 324 324 323 322 322 321 321 321 320 320 320 320 320 320 320 320 321 321
310 310 310 311 312 314 315 316 316 317 318 318 318 317 316 315 313 312 312 312 312 312 311 311 312 312 312 312 313 313 313 314 313 313 314 313 313 313 313 314 314 315 318 320 323 324 324 324 324 325 324 324 325 326 327 327 328 328 328 327 327 327 327 327 326 325 324 323 322 321 320 320 320 319 318 318 318 317 317 317 317 317 317 317 317 317 317
311 310 310 310 311 311 312 313 314 314 315 316 316 317 317 316 315 314 313 311 310 310 310 310 310 310 310 311 311 311 312 312 313 312 312 312 312 313 313 313 313 314 314 315 318 319 320 321 322 322 323 322 322 323 322 322 323 323 322 322 322 322 322 323 323 322 322 321 320 319 318 317 316 316 315 315 314 314 314 313 313 313 314 313 313 313 314
313 312 311 310 310 310 310 311 312 313 313 314 314 315 315 316 316 316 315 313 311 310 310 310 310 309 309 309 309 309 310 311 311 312 312 312 312 312 313 312 312 312 312 313 313 314 316 317 318 319 320 320 320 320 319 319 319 319 318 319 318 318 318 319 319 319 319 318 317 316 315 314 313 313 312 312 311 310 310 310 310 310 310 310 310 310 310
314 313 313 312 312 311 311 310 311 311 312 312 313 313 314 314 315 315 316 315 314 312 311 310 310 310 309 309 308 308 309 309 309 310 311 312 311 312 312 312 311 310 310 310 311 311 313 313 315 315 316 316 317 317 317 317 317 316 316 316 316 316 315 315 315 315 315 314 313 313 312 311 311 310 309 309 308 308 307 307 307 307 307 307 307 307 307
313 313 313 313 313 313 313 312 311 312 312 311 311 311 312 312 313 314 314 315 315 315 314 312 311 311 311 311 310 309 308 308 308 309 310 310 311 311 311 311 311 310 310 309 309 310 310 311 312 313 313 313 313 313 313 313 314 314 314 314 314 313 313 313 312 312 312 312 311 310 310 309 308 307 307 306 306 305 305 305 305 305 305 304 304 304 305
313 313 312 312 312 313 312 312 312 312 312 311 311 311 311 311 312 312 312 313 314 314 314 313 313 313 313 313 313 311 309 308 308 308 309 310 311 311 310 309 310 310 309 309 309 309 309 309 310 310 310 310 310 310 310 310 311 310 311 312 312 311 310 310 309 309 309 309 309 309 308 307 306 305 305 304 303 303 302 302 302 302 302 302 302 302 302
313 313 312 312 311 311 311 311 311 311 311 311 311 310 310 311 310 311 311 311 312 312 312 313 313 313 313 313 313 313 311 309 308 308 308 310 311 311 309 309 309 309 308 308 308 308 308 308 308 308 308 308 308 308 308 308 308 308 309 309 309 309 309 308 307 306 306 305 305 305 305 304 304 303 303 302 302 301 301 300 300 300 300 300 300 300 300
313 313 312 312 311 311 310 310 310 309 309 309 309 310 310 310 309 309 309 310 310 310 310 311 311 312 312 312 311 311 311 311 310 309 309 310 310 308 307 307 308 308 307 307 307 308 307 307 308 308 308 307 307 307 307 307 307 308 307 308 307 307 308 308 307 306 305 304 304 303 303 303 303 302 302 302 301 301 301 300 300 300 299 299 298 298 298
311 311 311 311 311 310 310 310 309 309 308 308 308 308 308 308 307 307 307 308 308 309 309 309 310 310 310 311 311 311 310 310 310 310 310 311 310 309 308 308 309 308 308 307 307 307 307 306 306 307 307 307 307 307 307 307 307 307 307 307 307 307 307 307 307 307 306 306 305 305 304 304 304 303 303 303 302 302 302 302 301 301 300 299 298 297 297
310 309 309 309 309 309 309 309 309 309 308 308 307 307 307 307 307 306 306 306 306 307 308 308 308 308 309 309 310 310 310 310 310 310 310 310 310 309 309 308 308 308 308 308 307 307 306 306 306 306 306 306 306 306 306 305 305 306 306 306 306 307 307 307 307 307 306 306 306 306 306 306 305 305 304 304 304 304 303 303 302 302 301 301 300 299 298
310 309 309 308 308 308 308 308 308 308 308 308 307 306 306 305 306 306 306 305 305 305 305 306 307 307 307 307 308 308 309 310 310 310 310 309 309 309 308 308 308 307 307 307 307 307 307 306 306 306 306 306 306 305 305 305 304 304 304 305 305 305 305 306 306 306 305 306 306 306 306 306 306 305 305 305 305 305 304 304 303 302 302 301 300 300 299
310 310 309 309 308 308 308 307 307 306 306 307 306 306 305 305 305 305 305 306 305 304 304 304 305 305 306 306 306 306 307 307 308 308 308 308 308 308 308 307 307 307 306 306 306 306 306 306 306 305 305 305 305 305 305 305 304 303 303 303 303 304 304 304 304 304 304 304 304 305 305 305 304 304 305 305 305 305 305 304 304 304 303 301 300 300 299
309 309 308 307 306 306 306 306 306 305 305 305 305 305 304 304 304 304 304 305 305 304 303 303 304 304 304 304 305 305 305 306 306 307 307 307 307 307 306 306 306 305 305 305 305 305 305 305 305 305 305 305 304 304 304 304 303 303 302 302 302 302 302 302 302 303 303 303 303 303 303 303 303 303 303 303 303 303 303 303 303 303 302 300 299 298 297
307 307 307 306 305 305 304 305 304 304 303 303 304 304 304 303 303 303 303 304 304 303 303 303 303 303 303 303 304 304 304 304 305 305 305 306 306 306 306 305 305 305 304 304 304 304 304 305 305 304 304 304 303 304 304 304 303 303 302 302 301 301 301 301 301 301 302 302 302 302 302 302 302 302 302 302 302 302 302 301 301 302 301 299 298 297 296
Wind_Speed
14 13 13 12 12 11 7 14 17 15 18 23 18 8 8 10 8 5 7 11 10 6 5 3 2 4 6 6 8 9 7 7 11 18 20 18 17 16 17 19 20 18 17 16 16 16 17 20 23 25 28 31 32 32 34 35 35 35 36 38 38 38 39 40 41 42 42 42 43 42 41 41 41 40 39 39 39 38 38 39 40 39 37 37 38 39 39
14 11 10 10 10 10 8 6 14 17 15 21 21 13 8 11 9 7 8 10 9 6 5 4 3 3 4 6 7 9 9 8 9 14 19 20 18 15 15 17 18 18 17 16 15 15 14 16 21 24 26 29 32 32 33 35 36 36 37 38 38 38 38 40 41 42 41 41 41 41 41 41 42 41 40 39 39 39 38 39 40 40 39 37 37 38 38
10 10 8 9 10 8 9 10 10 17 16 17 20 17 10 7 9 10 9 8 6 5 6 5 5 4 6 8 8 9 9 9 10 11 13 15 15 13 14 15 15 15 16 14 14 15 15 17 21 24 26 29 32 32 33 35 36 36 37 38 39 39 39 40 41 41 41 41 40 41 41 41 42 42 41 39 39 39 39 39 39 39 39 39 37 37 38
7 12 11 10 12 10 9 11 8 8 9 10 15 18 13 7 9 11 7 6 5 6 6 5 4 6 9 8 7 8 8 8 10 10 10 11 10 10 11 12 11 12 13 13 14 15 15 19 23 25 25 27 29 31 32 34 35 36 36 36 38 39 38 39 40 41 41 41 41 41 41 41 42 43 42 40 39 39 39 39 38 38 39 40 39 37 38
7 14 15 10 9 8 6 7 5 3 1 4 6 15 15 8 8 9 6 5 5 5 7 8 7 9 10 7 6 8 8 8 8 8 10 11 11 11 11 10 10 11 11 11 13 14 15 20 25 27 27 27 29 32 33 32 33 35 34 34 36 38 38 39 40 40 41 41 40 41 42 42 42 41 41 41 40 40 40 39 39 38 39 39 39 38 37
8 15 16 10 5 4 3 4 5 2 1 7 6 13 18 11 5 6 6 6 6 6 7 9 8 8 8 7 6 7 9 9 9 9 8 8 9 11 11 11 10 9 8 9 10 13 17 21 24 26 27 27 29 31 32 31 32 34 34 32 33 36 38 39 40 40 40 40 40 41 42 42 41 40 40 41 41 40 39 38 38 38 38 38 39 40 39
6 10 10 5 3 4 5 6 8 5 2 6 6 4 10 9 7 6 7 8 7 7 7 8 8 8 8 9 8 8 8 8 8 8 7 7 7 7 8 9 9 9 9 8 8 11 16 19 20 22 23 24 26 28 30 31 31 33 33 31 31 35 37 38 39 40 40 39 39 40 40 40 39 39 40 40 40 39 38 38 39 39 38 38 39 40 40
4 5 4 2 3 7 9 7 8 7 3 3 5 10 12 8 7 3 7 10 9 8 8 7 7 8 8 8 8 8 9 7 7 7 6 7 8 7 6 6 6 7 9 11 11 12 15 17 17 18 20 22 23 24 27 29 30 31 32 30 30 33 36 37 38 40 40 39 39 38 38 38 38 38 38 39 39 39 37 37 37 38 38 38 38 39 40
3 5 5 4 4 7 7 5 6 7 2 3 4 7 12 17 17 12 3 7 9 8 9 9 8 10 10 7 6 7 9 7 5 5 4 5 8 10 8 7 7 9 12 14 15 15 15 16 18 20 21 21 22 22 24 26 27 28 29 29 29 32 35 37 38 39 40 39 38 37 37 37 38 38 39 38 38 38 37 35 35 36 38 39 38 38 38
4 5 4 4 3 2 4 8 11 11 3 6 8 8 9 14 18 19 15 9 6 5 9 12 10 10 10 7 6 7 9 9 8 7 7 7 8 9 8 8 10 11 13 14 13 12 11 11 14 18 22 23 22 21 22 23 23 25 26 27 28 30 34 36 37 38 39 39 38 37 37 37 38 38 38 37 36 36 36 36 35 36 36 36 37 38 38
5 4 3 3 2 1 6 12 16 16 7 7 9 9 8 10 15 17 17 17 17 13 7 10 10 8 8 7 6 8 11 13 12 12 13 13 12 10 10 11 11 11 13 13 10 8 6 7 8 10 15 21 23 21 22 23 22 22 24 26 27 28 32 35 36 37 38 38 38 37 37 37 37 36 36 36 35 34 35 35 34 33 33 33 34 35 37
4 4 3 3 2 2 8 11 16 17 10 6 9 6 3 8 13 15 16 17 18 15 11 11 12 8 6 5 4 7 11 13 13 13 12 12 11 10 11 13 12 11 11 9 6 5 4 8 9 6 6 12 19 21 23 23 23 23 25 26 26 26 29 33 35 36 37 38 37 37 36 35 34 33 33 33 32 32 32 33 32 31 30 30 31 33 34
5 4 4 4 2 5 10 11 16 18 11 5 9 4 2 7 9 12 14 15 14 13 12 10 9 7 7 6 6 7 10 12 12 11 9 10 12 11 11 12 10 8 8 7 6 5 2 2 7 8 5 5 11 17 20 21 24 27 28 26 25 26 27 31 33 34 35 36 36 35 34 33 31 30 31 31 31 31 31 30 30 31 30 28 27 28 30
4 3 5 4 2 7 11 9 14 16 8 3 2 1 5 7 7 11 12 12 12 12 10 9 8 9 10 11 10 7 8 11 11 9 8 9 11 12 13 14 11 8 7 8 10 10 9 6 4 6 6 6 7 10 16 22 27 28 27 26 26 26 27 30 31 32 32 33 33 32 31 30 29 28 29 30 30 30 29 28 28 28 29 28 26 23 23
3 4 4 2 1 7 12 10 9 12 7 3 3 4 4 8 12 11 10 10 11 11 10 10 10 11 11 12 12 11 10 11 10 9 9 9 9 10 12 13 12 10 8 10 12 12 10 9 7 7 8 10 9 8 14 22 26 26 26 26 27 27 28 29 30 30 30 31 31 30 29 29 28 27 27 28 28 28 28 27 26 26 27 27 26 22 19
3 4 2 1 1 7 12 10 4 4 4 4 1 4 8 11 12 11 9 10 11 11 11 11 11 12 12 11 12 12 10 10 9 9 9 9 9 9 10 12 13 11 10 10 10 10 11 11 9 8 9 11 11 10 12 17 21 24 25 26 28 28 28 29 30 30 29 28 29 28 28 28 27 26 26 26 27 27 27 27 26 24 24 24 23 21 19
3 4 3 1 3 6 10 9 5 6 8 7 7 9 8 8 9 9 9 11 12 12 12 11 11 11 11 11 11 11 10 8 8 9 10 9 9 10 10 12 13 12 10 8 8 9 11 13 13 9 8 10 11 8 8 12 19 24 25 26 28 28 28 29 29 29 28 27 28 27 27 27 27 26 26 25 25 25 26 26 25 22 21 21 21 20 18
6 6 6 2 4 7 9 8 7 9 11 11 11 10 9 8 9 9 8 11 13 13 12 11 10 11 11 12 11 11 10 9 8 8 8 8 9 9 9 11 13 13 10 6 6 9 12 14 15 13 5 2 2 2 4 10 17 22 24 25 27 26 26 27 28 28 27 26 26 26 25 26 26 26 26 25 24 24 24 24 23 21 20 20 20 19 18
5 6 5 2 7 9 9 7 6 8 11 11 11 9 8 8 9 10 10 11 12 12 13 12 11 10 11 11 10 9 9 9 8 7 7 7 7 8 8 11 13 13 11 8 7 10 12 13 14 13 10 7 6 7 7 8 14 19 22 24 24 23 24 24 25 26 25 23 24 24 24 24 25 25 26 25 24 23 23 22 21 20 20 20 20 19 18
4 7 9 7 5 5 5 5 6 8 10 11 11 9 8 9 10 10 11 11 11 11 12 11 10 10 10 10 10 9 9 7 6 6 6 5 6 9 12 14 14 12 10 9 10 10 12 14 14 12 11 9 7 6 8 9 13 18 20 21 21 21 22 22 22 23 24 23 23 22 20 19 20 20 22 24 23 20 20 21 21 20 19 17 17 17 17
6 8 11 8 3 1 4 9 9 7 8 9 10 9 9 10 10 10 10 10 10 11 11 11 10 9 9 10 10 10 10 8 7 7 7 7 8 11 13 12 11 10 10 10 11 11 11 13 14 12 11 10 7 5 5 6 12 17 18 20 20 20 21 21 21 21 21 22 23 22 20 18 15 12 14 18 19 16 14 16 19 20 18 15 15 17 19
5 6 7 5 3 0 4 9 9 7 7 8 9 8 9 9 9 9 9 9 9 9 10 10 9 9 9 10 11 11 11 10 7 7 8 8 8 10 11 9 8 8 9 9 9 9 9 10 11 11 11 10 8 6 4 5 9 13 16 17 18 18 19 20 19 18 19 22 25 25 23 23 21 19 16 16 17 16 13 13 15 17 17 17 19 21 22
5 8 8 5 3 1 2 6 6 5 6 6 6 6 7 7 7 7 8 9 9 9 9 9 9 9 9 11 10 10 11 11 9 8 8 7 7 8 7 6 5 6 7 7 7 6 6 7 8 9 10 10 9 8 5 5 8 11 14 15 14 13 15 16 16 18 22 25 26 26 27 28 29 29 28 26 24 24 21 19 18 19 20 20 20 20 20
9 11 11 8 6 4 2 4 4 4 4 4 4 5 6 6 6 7 7 7 8 8 8 8 9 9 9 10 10 9 9 10 9 8 9 9 8 6 4 2 2 2 4 5 4 4 4 5 7 10 12 11 10 10 10 11 12 15 17 18 17 16 17 18 19 23 27 28 28 29 29 30 32 34 33 31 28 28 28 26 24 24 23 22 22 20 19
8 9 9 8 7 7 5 3 3 4 4 4 4 4 6 7 7 7 6 6 5 6 7 8 8 9 9 8 8 8 7 8 10 10 9 7 6 3 1 1 1 2 3 3 4 5 5 7 10 13 14 13 12 13 16 19 21 21 22 23 22 21 22 24 24 25 27 27 27 28 28 28 29 30 31 29 26 27 29 30 28 26 25 23 23 23 21
9 8 9 9 8 7 6 5 3 3 5 6 5 3 4 6 8 7 4 4 5 6 6 6 7 10 10 8 9 9 7 9 11 11 9 7 6 2 1 2 2 3 3 3 6 7 8 9 12 13 13 14 15 18 21 24 25 25 24 25 24 23 25 27 26 25 24 24 25 25 26 27 26 26 27 28 28 27 26 26 25 25 24 23 21 20 19
11 9 8 8 8 6 5 5 5 5 6 7 7 5 5 7 8 7 4 2 4 5 6 7 7 9 9 10 11 11 10 10 11 10 9 8 5 2 2 3 4 4 5 7 8 8 8 10 12 12 13 13 15 19 22 25 27 26 25 25 25 24 25 27 27 25 25 25 25 25 24 25 26 26 25 26 26 24 22 21 21 22 23 22 20 18 17
13 11 9 8 7 5 5 7 8 8 8 8 8 8 8 9 9 8 5 3 2 3 5 7 7 7 6 8 9 9 9 9 8 7 7 7 6 5 5 5 5 7 8 8 7 6 5 6 8 9 10 11 14 18 22 25 26 26 24 25 25 25 24 25 26 27 27 27 27 27 26 26 27 27 26 25 24 24 23 22 22 22 21 20 19 18 17
14 13 12 11 9 6 7 8 9 8 8 9 9 10 11 11 12 11 9 8 6 4 4 5 6 6 6 6 6 7 7 7 7 8 7 7 6 6 7 8 8 8 8 7 6 6 7 7 8 8 8 8 10 14 18 22 24 24 24 24 25 25 24 24 26 28 29 29 29 29 30 29 29 28 27 26 25 24 23 23 22 21 19 17 16 18 18
14 14 12 11 9 7 7 8 8 8 7 7 8 9 10 11 12 13 12 11 10 9 7 4 3 3 3 4 5 7 8 9 11 10 7 6 7 7 8 9 8 7 7 6 7 8 10 11 12 11 9 9 11 13 16 20 23 24 24 24 24 25 25 26 27 28 29 29 29 29 29 29 28 28 27 25 24 22 21 21 22 21 18 15 15 17 17
13 14 14 12 10 9 9 9 8 7 6 5 6 8 8 9 11 12 12 11 11 11 10 7 4 3 3 3 4 7 9 10 9 5 2 1 1 3 4 3 4 6 6 5 6 8 9 10 12 13 13 15 17 18 20 22 24 23 24 24 24 24 24 25 26 27 26 26 26 26 26 26 27 27 25 23 21 19 18 19 21 20 18 17 17 17 16
12 13 14 12 10 9 9 8 7 7 6 5 6 7 7 7 8 9 9 10 10 9 9 7 6 6 7 7 6 5 4 4 5 6 9 10 9 9 11 12 14 16 16 15 15 15 15 14 11 11 16 19 22 23 23 24 23 22 22 23 23 23 24 25 26 26 26 26 25 25 25 26 26 25 23 21 19 17 16 16 18 20 19 19 18 16 15
8 9 10 10 10 10 10 9 8 7 7 6 6 6 5 6 7 6 5 6 5 5 5 5 7 11 14 16 14 9 6 10 12 11 12 12 11 12 17 20 21 21 20 19 19 17 16 17 15 12 15 19 22 24 24 23 22 22 22 23 24 25 26 27 28 28 27 26 24 23 24 24 24 23 22 20 19 18 16 15 16 20 20 19 17 15 14
6 4 5 7 8 8 9 8 6 6 5 5 6 6 5 4 3 1 3 3 4 5 4 6 13 18 21 22 19 14 10 11 9 9 12 15 16 14 13 17 22 23 23 22 23 21 19 20 21 19 16 17 20 22 22 21 21 22 22 23 24 24 24 25 26 26 26 26 26 26 25 24 23 21 21 20 19 18 17 17 18 20 20 18 15 13 12
1 1 2 2 4 5 6 7 6 6 6 5 5 4 1 1 2 5 7 7 7 7 6 12 22 27 25 22 18 13 12 13 12 13 17 20 22 20 16 11 14 22 25 25 24 24 23 23 25 26 26 24 23 23 24 25 26 27 27 27 28 28 28 28 27 27 27 27 29 29 28 28 27 26 26 25 24 24 24 24 22 20 18 15 14 13 12
12 8 6 6 6 3 1 1 2 3 3 1 2 4 7 6 4 8 12 13 13 11 11 19 28 29 24 20 16 13 15 18 20 21 24 25 26 26 23 19 14 15 19 21 22 23 25 27 28 29 30 29 27 25 26 28 29 30 30 31 30 30 30 30 30 30 30 30 29 28 28 28 29 28 28 28 27 26 26 25 25 24 22 20 19 19 20
20 17 15 14 11 8 9 10 11 12 12 11 10 12 12 7 5 13 20 20 18 15 16 22 26 24 22 23 22 20 21 23 24 25 27 28 28 28 26 24 23 18 13 13 17 22 26 29 31 31 31 29 28 27 26 27 29 30 30 30 30 29 29 29 30 30 30 29 29 28 28 28 28 27 27 28 28 27 25 24 23 23 22 21 21 21 22
26 26 24 21 16 14 18 22 22 22 20 17 17 19 16 10 11 20 25 23 21 21 21 23 25 24 25 29 29 25 24 25 25 27 28 28 28 28 26 24 24 22 18 14 16 24 29 31 32 33 33 33 34 33 32 32 33 33 31 31 30 29 29 29 29 29 28 28 28 28 27 26 26 25 26 26 26 26 25 23 22 22 21 22 22 22 22
26 27 27 24 21 20 24 26 26 26 24 19 17 18 17 15 20 27 27 23 23 25 24 24 25 25 24 26 25 24 24 24 25 27 27 26 27 29 29 30 32 31 27 22 19 25 31 34 34 34 33 33 36 36 35 35 35 34 31 31 30 29 28 28 28 28 28 28 28 28 27 26 25 24 24 24 24 24 23 23 22 23 23 24 24 24 23
18 20 23 23 22 22 23 22 23 27 29 25 20 18 18 19 23 27 26 24 25 27 26 26 25 23 22 22 21 22 25 27 26 27 28 28 29 29 28 31 38 39 34 31 29 30 33 35 35 34 33 34 35 36 36 36 36 34 33 32 31 31 30 30 29 28 27 26 26 26 25 24 23 23 22 21 21 21 21 22 22 23 24 25 25 24 24
16 19 21 22 22 23 24 22 23 26 29 28 26 26 25 24 24 23 22 22 25 27 29 29 26 22 23 25 24 25 28 30 31 31 30 29 27 23 18 22 34 39 36 34 35 36 36 36 35 34 35 35 35 36 37 37 36 35 34 33 32 32 32 31 30 28 27 26 26 25 23 22 22 22 21 21 21 21 22 23 23 23 22 23 24 25 25
17 19 19 18 18 21 23 23 22 23 26 27 29 29 28 27 26 24 22 22 24 25 27 30 28 25 24 27 28 27 29 31 33 34 33 30 27 20 15 20 32 40 40 38 38 37 37 37 35 35 36 36 36 36 37 36 35 34 34 33 32 31 30 30 30 29 28 27 26 24 23 22 21 21 21 21 21 21 22 23 24 23 22 21 22 24 24
18 18 16 15 16 18 19 20 20 20 22 25 28 29 28 27 27 26 25 25 24 22 22 25 26 25 24 25 25 24 25 26 28 30 31 32 32 30 26 26 31 37 40 41 40 38 38 38 37 37 37 36 36 36 37 36 34 33 32 32 31 31 31 30 30 29 28 27 26 25 24 23 22 22 22 22 22 22 22 22 22 22 21 20 20 21 22
18 18 16 17 18 18 18 17 17 16 16 20 25 28 28 27 28 27 26 25 25 23 22 21 21 21 21 22 22 21 21 23 25 25 24 23 26 30 33 33 33 34 37 39 39 38 37 37 37 38 38 36 36 36 35 34 33 33 32 31 31 31 31 31 31 30 29 27 26 25 25 25 25 25 25 25 26 27 27 26 24 23 23 23 23 23 23
16 17 17 18 18 19 18 18 17 15 15 18 22 24 25 25 26 27 26 25 25 25 24 24 22 20 19 20 20 21 21 22 24 25 22 16 14 20 28 32 33 34 35 36 36 35 34 34 34 35 36 35 35 35 34 33 32 32 31 31 30 30 30 30 30 30 30 30 29 28 27 27 27 27 27 27 28 29 30 30 29 29 29 28 27 25 25
14 16 17 17 16 17 18 19 20 20 20 18 17 18 21 22 23 24 24 24 24 24 25 25 25 24 23 22 21 21 21 21 22 23 23 20 18 20 24 28 30 32 33 34 34 33 32 32 32 32 32 32 32 33 33 32 31 30 29 29 28 28 27 27 26 26 26 27 27 27 26 26 25 25 25 26 26 27 28 30 30 31 31 31 30 29 29
14 15 16 17 17 17 18 18 19 19 19 15 12 14 18 20 21 21 22 22 22 23 24 25 25 25 25 24 21 19 18 18 18 20 21 21 22 22 23 23 24 26 28 29 30 30 30 30 31 31 30 30 30 30 30 30 30 29 28 27 26 26 25 25 25 24 23 23 22 22 23 23 24 24 24 24 24 24 25 27 28 28 29 31 31 30 31
13 14 15 17 18 19 20 19 16 15 14 13 13 15 18 20 19 20 21 21 21 21 21 22 23 24 25 25 24 22 19 16 14 16 19 21 22 22 22 22 22 23 24 25 25 26 26 26 27 28 28 28 28 27 28 28 29 28 28 26 25 24 23 23 22 22 21 20 19 18 17 18 20 21 22 22 22 22 22 23 25 26 27 28 28 28 29
12 13 14 15 16 16 17 16 14 13 13 14 15 17 19 19 18 17 18 19 20 20 20 20 20 21 22 23 24 24 23 20 16 15 18 20 20 21 21 21 21 22 23 23 24 24 23 23 24 24 24 25 25 25 26 28 28 29 28 28 27 26 24 23 22 22 22 22 21 20 19 18 19 18 18 18 18 18 17 18 20 22 24 25 26 26 26
11 12 12 12 13 14 14 13 12 13 14 14 13 15 17 17 16 15 15 16 17 18 19 20 20 20 20 21 22 22 23 22 21 20 21 22 22 23 23 23 23 24 24 24 25 25 25 25 24 24 25 25 26 26 26 26 27 27 28 28 28 27 26 25 24 24 24 25 25 25 24 23 24 23 20 18 17 18 18 17 16 18 20 22 24 24 24
11 12 12 13 15 16 15 14 13 14 15 15 14 14 15 15 13 14 16 16 16 15 16 18 19 20 20 20 21 21 21 21 20 20 21 22 23 24 24 24 24 24 25 25 25 25 25 24 24 24 25 25 25 25 25 25 25 25 26 26 27 27 26 26 25 25 24 24 24 25 24 24 23 23 22 20 20 20 21 20 18 18 19 21 22 22 21
15 15 15 15 15 17 17 16 14 13 14 15 14 13 13 13 13 14 15 15 15 15 14 15 16 18 20 19 19 20 21 22 21 21 20 20 21 22 22 23 23 23 23 22 22 21 21 22 22 22 23 23 23 23 23 23 23 23 23 23 24 25 24 24 24 25 24 23 22 22 22 22 22 21 21 21 21 21 20 19 18 19 19 20 20 20 19
Wind_Direction
303 294 295 299 299 291 229 196 208 207 194 206 217 200 170 164 156 213 209 155 157 204 193 142 113 142 136 124 122 118 109 122 150 166 175 177 175 174 173 174 177 176 175 176 178 179 182 184 184 184 187 188 189 189 190 191 192 193 193 195 197 199 201 203 206 207 207 207 207 207 206 207 208 208 209 208 209 209 209 209 210 210 211 212 212 213 214
308 302 296 298 301 304 306 247 220 221 206 198 208 218 195 169 168 192 187 159 159 180 173 158 199 202 142 121 124 117 107 102 120 153 170 173 172 169 168 171 173 173 174 176 177 178 179 184 186 185 185 186 188 189 190 191 193 194 193 194 196 198 200 202 205 206 207 207 206 206 205 206 207 208 208 208 209 210 210 211 211 212 212 213 213 214 214
315 314 301 299 300 293 306 309 249 224 217 198 196 213 222 177 170 193 182 151 157 173 158 160 191 172 101 104 124 116 110 111 110 128 155 164 163 158 160 167 170 171 174 174 176 180 182 186 189 188 186 186 187 189 189 191 193 195 194 194 195 197 198 200 202 204 205 206 206 205 205 205 206 206 207 208 208 210 210 211 211 212 212 213 214 214 215
328 330 324 303 300 304 305 302 276 217 216 209 189 198 219 202 170 186 179 148 184 196 153 118 106 108 97 99 109 96 91 104 106 112 129 135 134 139 151 160 163 169 176 175 177 181 184 188 191 190 187 184 186 189 191 192 193 195 196 195 196 197 198 198 200 201 203 204 204 205 205 205 206 206 206 207 208 209 210 210 210 211 211 212 213 214 215
318 324 325 311 307 322 310 288 304 68 59 283 205 189 207 212 162 168 188 191 199 183 139 121 99 91 98 104 100 90 84 79 82 100 125 134 136 137 142 148 151 159 168 171 175 179 183 188 191 190 186 183 187 191 192 193 193 196 198 197 196 197 197 197 198 200 201 202 203 204 205 206 207 206 206 207 208 208 209 210 209 210 211 212 212 213 214
309 312 319 319 299 286 283 305 321 16 25 312 272 193 193 208 185 152 174 188 164 130 127 133 125 109 109 110 101 95 92 82 70 72 94 123 140 145 149 151 149 150 152 157 165 170 177 184 188 188 186 186 189 191 192 192 193 196 200 200 197 196 197 196 197 198 199 201 202 204 205 206 206 206 206 207 208 209 209 209 209 210 211 211 212 213 214
293 306 321 319 259 267 298 318 315 311 333 324 316 151 164 208 222 167 160 176 165 139 128 124 120 117 106 93 83 70 72 91 99 87 85 93 102 120 138 140 144 149 146 147 156 160 167 174 178 183 187 189 189 190 191 193 194 197 200 201 198 196 196 196 196 196 198 199 201 203 205 205 206 207 208 208 209 209 208 208 209 210 211 211 213 214 215
287 318 329 261 269 303 304 304 314 316 322 342 18 56 51 6 316 256 189 177 160 138 128 120 117 113 92 74 71 56 46 65 97 108 119 123 114 121 132 129 145 164 156 153 160 165 168 173 176 181 188 190 189 190 192 194 196 198 200 201 199 195 195 196 195 195 197 198 200 201 202 203 205 208 209 209 209 209 209 209 210 211 212 213 214 215 216
322 332 318 283 285 300 297 306 318 304 300 73 81 72 39 15 2 354 350 161 154 136 116 97 83 87 80 55 34 39 39 36 56 87 109 134 134 138 137 117 119 143 150 153 161 167 170 177 184 190 193 192 190 191 193 195 197 198 200 202 199 195 195 196 195 195 196 197 198 200 200 202 204 207 209 210 210 209 209 210 211 212 213 215 216 217 218
330 328 315 298 279 289 323 334 325 311 323 90 95 85 42 11 7 14 23 38 48 72 102 101 86 78 77 57 11 13 29 20 15 40 44 50 93 113 112 100 100 111 123 134 147 157 163 175 184 190 195 195 191 190 194 197 197 199 201 203 200 195 195 196 195 195 196 197 198 198 199 201 204 206 208 210 210 210 210 211 212 214 215 216 218 219 220
309 310 308 302 282 0 336 337 338 330 338 92 91 70 40 1 1 17 28 30 24 17 41 89 92 81 75 68 25 19 36 36 36 51 54 53 62 66 67 77 78 80 95 110 122 136 167 203 199 185 190 195 193 191 196 199 200 203 205 205 202 197 195 195 195 195 196 197 198 198 200 202 204 205 207 209 210 211 211 213 215 216 217 218 220 221 223
276 280 295 298 287 308 320 342 349 333 326 68 77 68 28 348 -0 17 27 33 29 14 15 52 71 72 77 86 67 50 53 51 48 54 59 63 64 51 46 58 66 74 88 97 105 123 184 229 235 224 198 194 196 197 197 197 201 208 210 208 206 201 196 194 195 195 196 197 198 199 200 202 204 205 206 208 209 210 212 214 216 218 219 220 221 223 225
261 260 270 270 282 322 326 357 3 338 322 48 71 81 276 314 354 24 26 30 31 16 17 41 57 58 54 54 59 65 68 63 54 48 50 64 75 71 55 50 58 79 89 80 74 78 77 259 253 251 241 212 210 207 201 199 204 209 210 209 207 203 196 192 193 194 196 197 198 199 200 201 202 204 205 206 207 209 211 213 214 216 218 220 221 224 225
258 247 269 283 345 336 330 1 11 356 356 76 70 283 274 311 11 33 24 27 31 20 19 35 46 46 38 30 29 39 66 76 65 47 44 59 70 72 61 51 53 67 70 56 50 45 34 17 328 286 280 279 255 221 206 208 209 207 206 206 205 201 195 191 191 192 194 196 197 197 198 199 199 201 203 205 207 209 210 211 213 215 218 220 223 225 226
247 236 269 314 6 337 346 13 17 5 31 126 234 292 338 6 24 26 15 23 29 22 19 27 36 41 35 27 23 23 47 70 64 44 47 61 65 61 52 43 41 48 50 40 34 29 16 2 341 313 306 307 297 249 221 220 214 204 202 203 201 197 193 189 189 191 192 193 194 194 195 196 197 198 201 203 206 208 209 209 212 214 216 219 223 225 226
234 214 211 58 316 333 3 32 37 349 42 127 153 18 20 18 20 17 9 13 20 24 24 20 25 33 30 25 23 22 34 59 61 49 46 52 57 57 49 37 31 36 43 35 21 16 13 5 341 301 291 302 300 272 241 229 213 200 197 197 194 191 189 187 187 188 189 189 191 192 193 194 195 196 198 201 204 207 207 208 209 211 214 215 217 221 224
276 257 250 333 346 347 13 32 17 359 32 56 52 39 30 21 20 18 9 3 6 18 24 18 19 25 21 18 20 20 24 39 56 59 51 48 55 55 44 32 26 30 41 36 16 14 20 15 2 336 291 276 277 265 235 216 202 193 191 189 186 186 185 183 184 184 185 187 188 189 191 192 193 195 197 199 201 203 204 204 205 205 206 207 210 212 215
313 294 260 209 54 21 16 17 6 14 31 36 36 33 27 22 21 17 11 4 2 9 17 17 17 17 13 11 11 13 17 26 43 58 54 48 53 53 40 25 18 20 23 19 16 25 23 12 7 8 4 245 224 155 163 185 187 185 182 180 179 180 179 178 180 180 181 183 184 187 190 193 194 196 197 198 198 199 200 200 200 198 197 199 201 200 200
305 294 279 70 56 23 2 357 2 25 33 30 29 26 14 15 20 16 10 6 2 7 13 13 12 11 8 6 4 3 11 19 30 45 50 48 47 44 33 21 17 17 17 21 37 37 22 8 5 13 34 62 78 85 97 134 162 171 172 171 171 172 171 171 173 175 176 177 180 183 187 191 194 196 197 197 197 197 196 195 193 192 191 190 190 191 193
293 293 304 338 11 353 353 11 20 27 28 24 24 19 6 12 18 12 8 6 2 5 8 5 4 3 1 1 1 357 359 6 17 28 39 43 38 34 32 28 26 29 32 36 45 37 18 9 6 10 26 41 50 68 80 108 141 152 156 158 159 161 163 165 166 169 172 173 173 172 173 177 182 187 191 192 191 190 192 192 187 184 182 181 182 182 175
305 300 311 335 348 314 37 43 33 25 26 21 16 11 8 15 15 4 2 8 7 2 356 352 356 359 354 353 357 356 350 352 8 21 21 19 22 32 34 27 23 38 51 49 45 35 21 13 8 9 24 37 39 45 64 109 136 139 142 147 149 153 160 164 167 171 171 165 159 153 146 143 142 147 165 176 176 173 178 185 186 184 177 163 155 150 140
281 283 303 350 16 281 56 47 30 19 27 21 9 4 7 11 7 357 355 4 9 2 347 340 347 353 348 346 353 357 349 344 359 18 13 4 15 29 31 20 20 51 70 65 50 38 27 19 14 18 35 49 49 46 70 132 141 136 139 141 143 151 160 166 171 172 160 148 145 143 138 130 119 108 112 130 139 137 139 155 171 174 162 144 138 137 128
283 288 296 328 353 329 57 44 22 13 23 13 358 357 357 353 354 0 2 0 358 348 335 333 343 347 343 342 350 358 349 338 346 7 8 6 11 16 23 34 50 71 84 85 76 55 25 9 10 24 44 53 49 50 80 147 156 145 138 132 128 138 150 157 162 155 141 133 133 132 130 126 120 109 100 98 102 104 108 119 131 135 132 125 125 130 125
282 288 293 309 319 309 347 29 11 350 350 0 6 359 343 340 354 8 6 355 344 333 328 332 338 338 339 340 344 350 343 333 338 358 5 3 2 1 16 77 104 100 100 102 97 73 34 25 36 47 56 60 55 59 84 118 129 126 121 113 106 108 115 122 129 132 129 127 126 124 123 123 122 117 108 100 95 94 97 102 109 114 117 116 113 113 114
279 283 290 306 317 319 329 358 3 339 333 353 24 10 345 340 344 347 345 339 329 321 321 324 328 332 337 335 333 338 336 326 331 345 349 340 332 335 53 127 112 115 125 113 85 73 67 68 69 68 69 72 75 80 92 104 107 106 105 104 101 100 102 106 111 119 123 124 124 124 123 123 123 122 119 114 108 102 99 98 99 101 103 105 104 102 101
286 293 300 305 309 317 326 327 330 341 335 329 333 350 348 332 321 315 320 322 310 304 310 318 326 331 332 324 318 320 319 315 320 326 322 306 296 284 172 152 136 136 141 114 89 86 83 80 79 77 75 81 90 95 99 103 102 99 98 99 98 98 100 102 105 110 117 120 122 123 124 123 122 121 120 120 118 114 109 105 101 98 94 92 92 93 94
281 288 301 304 300 306 320 317 319 332 328 316 317 335 347 328 311 297 281 275 293 311 323 324 318 317 319 317 312 307 302 302 305 302 296 294 292 267 188 166 151 135 122 112 107 103 96 91 91 87 81 86 98 103 104 106 104 101 98 98 97 96 98 100 102 105 109 114 119 121 122 123 123 122 123 122 121 119 117 114 110 105 97 89 84 82 87
273 276 279 278 278 294 314 313 315 323 323 318 325 336 337 328 317 310 305 305 315 323 322 318 312 307 311 316 315 306 299 297 292 284 286 291 273 234 204 176 150 131 124 125 127 126 121 114 110 104 97 96 102 106 107 106 104 100 98 98 97 94 94 95 99 103 104 107 111 114 116 117 118 118 118 117 116 115 114 114 115 112 102 90 79 73 77
254 259 263 263 267 282 295 295 297 303 309 317 327 331 330 327 322 318 318 322 327 329 322 310 299 289 286 297 306 304 296 290 282 279 284 284 258 219 174 147 140 132 122 118 112 105 101 97 91 91 96 104 110 111 110 108 105 102 100 99 98 97 97 98 100 103 104 103 104 106 109 111 112 111 110 108 109 111 112 114 116 114 105 92 75 65 67
237 238 241 249 262 271 274 278 282 284 292 311 320 320 321 321 315 311 316 323 326 324 322 312 294 287 289 294 302 305 303 299 292 283 272 257 236 205 167 152 152 143 130 130 132 124 115 108 104 99 96 101 109 110 107 106 105 104 104 106 105 104 103 103 103 104 105 104 104 104 106 108 108 107 106 104 105 108 111 115 116 114 107 96 78 67 65
224 225 224 227 235 246 254 263 270 271 277 292 298 297 302 306 302 303 312 319 318 318 323 336 11 21 332 301 303 311 310 305 296 273 178 125 226 187 156 138 115 97 88 89 101 100 94 96 106 115 115 112 111 110 107 105 105 106 109 113 114 111 109 108 107 107 106 105 104 104 107 109 110 109 108 109 110 110 112 116 118 116 108 94 80 72 73
210 211 212 212 213 223 236 247 255 260 261 262 265 269 273 279 284 291 303 309 311 320 335 355 15 4 351 355 355 336 333 2 29 70 88 81 78 92 94 82 72 69 65 62 63 65 61 56 66 104 124 121 115 113 111 109 109 110 112 112 109 106 104 103 103 103 103 102 100 99 101 105 108 108 108 109 110 108 105 105 112 114 105 91 82 80 82
200 198 199 202 203 209 219 224 229 234 236 238 249 254 255 265 275 290 313 320 331 352 2 20 35 29 26 26 18 8 46 64 51 47 57 59 60 76 87 86 80 73 69 68 67 64 61 57 59 88 124 129 123 119 118 117 116 115 114 110 106 102 100 99 100 100 99 97 93 92 97 104 107 108 108 107 107 106 98 92 101 108 102 90 86 91 94
188 194 198 197 194 201 212 213 213 222 225 227 238 245 253 269 286 34 51 36 44 43 28 49 59 54 46 39 28 21 46 64 51 35 41 40 34 39 61 82 87 82 74 71 70 64 59 58 63 77 102 123 127 124 122 120 117 113 110 108 106 103 100 99 98 95 91 85 80 80 83 88 92 95 96 94 93 92 83 77 90 106 106 95 88 88 93
118 271 266 207 189 204 215 209 202 208 213 214 221 228 263 21 83 99 90 74 65 63 70 79 73 64 55 47 37 31 47 58 50 41 40 35 30 28 25 38 76 84 78 72 70 67 62 59 64 74 83 92 100 105 107 107 104 100 98 96 92 89 87 86 84 82 80 78 76 74 73 73 73 74 75 74 70 68 64 63 70 82 86 80 70 62 62
40 37 40 40 35 25 304 228 199 185 166 142 145 102 75 61 83 100 90 79 71 69 79 83 78 71 62 53 44 38 51 57 52 47 44 38 36 36 28 12 20 58 73 70 68 70 69 66 69 75 80 82 85 90 97 100 98 96 94 92 88 85 83 80 78 76 75 74 73 72 70 70 69 67 67 66 63 61 60 59 60 61 60 57 54 52 51
37 41 48 42 32 46 69 66 63 72 71 61 62 68 61 43 62 85 82 77 70 66 70 76 78 78 75 67 56 46 49 57 57 55 52 46 42 43 38 23 12 15 30 50 65 73 75 72 72 73 74 74 74 76 83 90 93 91 89 87 86 84 82 79 77 75 73 72 72 70 69 68 66 62 61 61 60 59 58 58 57 58 56 53 52 50 49
38 39 42 37 31 49 68 65 62 66 69 65 64 66 61 47 59 72 73 70 66 65 66 70 76 79 79 73 65 52 46 52 58 59 57 52 47 46 42 31 19 9 359 10 55 75 77 74 72 71 68 69 71 74 77 83 86 85 84 83 83 83 83 82 79 76 74 72 70 69 67 66 64 62 61 60 59 59 58 58 57 57 56 54 52 50 47
40 38 38 34 32 44 58 58 55 57 59 59 65 74 75 69 67 69 68 65 64 65 65 67 71 72 71 71 68 59 48 47 53 58 58 54 52 52 46 36 30 23 10 8 38 68 75 73 73 71 69 70 74 75 76 79 81 80 78 78 77 77 79 80 80 78 75 73 70 69 67 66 65 64 63 61 60 58 58 57 58 57 57 56 56 53 51
45 41 37 34 32 37 45 48 48 50 51 50 52 59 63 65 67 70 69 66 64 65 65 65 66 66 64 65 67 65 57 50 48 53 56 54 51 52 46 35 33 33 27 21 31 52 64 68 71 72 70 71 74 75 75 77 78 76 75 74 73 73 74 76 76 75 74 72 71 69 68 67 67 66 64 61 59 57 55 55 54 53 54 55 56 55 54
47 47 45 44 42 41 42 42 42 44 46 46 45 46 48 52 60 67 70 70 69 68 66 64 64 64 66 66 66 65 62 57 50 49 51 50 48 50 47 34 32 36 36 31 31 42 52 58 63 67 70 71 72 74 75 76 76 75 74 74 74 73 73 73 73 73 72 72 72 71 71 71 70 66 62 60 58 57 58 58 56 52 52 52 53 54 55
42 44 45 47 47 49 50 48 45 44 44 44 44 44 45 48 53 56 61 66 70 71 70 70 68 66 67 70 68 63 61 61 57 53 51 49 46 47 51 43 40 44 47 42 36 37 44 49 54 61 67 70 71 74 75 75 75 74 74 74 74 74 74 73 73 73 74 73 74 73 73 72 70 66 63 62 60 58 59 61 61 57 54 52 51 52 53
42 41 41 41 42 45 49 51 51 49 47 45 45 46 46 47 49 50 50 53 58 63 69 74 74 71 69 72 73 68 62 61 61 59 57 55 52 52 55 52 47 49 53 51 44 39 40 43 47 54 62 68 71 73 74 74 73 73 74 74 73 73 74 74 74 75 75 75 74 73 72 71 71 70 67 65 62 60 59 59 59 57 54 53 53 52 50
47 45 44 42 40 40 42 44 48 51 53 52 52 50 48 46 47 48 48 47 48 50 53 59 65 67 66 68 73 75 72 68 66 64 62 57 52 52 55 58 56 54 56 57 55 50 46 44 47 52 58 65 70 73 73 73 73 73 73 74 75 76 76 77 77 77 78 77 77 77 76 75 75 76 76 74 72 70 67 65 63 61 60 58 56 54 52
50 49 48 47 46 44 43 41 41 44 52 58 59 57 53 49 47 47 47 47 46 46 47 48 51 54 57 61 67 75 79 78 75 74 72 69 57 50 53 58 61 60 60 61 61 59 56 54 54 55 57 60 65 69 71 72 73 74 74 75 76 78 79 81 81 81 81 82 82 83 84 84 83 83 83 83 81 78 76 73 71 68 65 63 59 55 53
48 46 46 46 46 46 47 48 47 46 46 48 52 54 55 55 53 50 48 49 48 47 48 49 50 51 54 58 62 67 72 75 77 79 83 88 87 75 66 64 64 65 65 65 63 62 62 63 63 62 61 60 62 65 67 69 71 73 73 74 75 76 78 81 84 85 86 87 87 87 89 90 91 90 88 85 84 82 80 78 75 71 69 67 64 62 60
51 48 45 43 42 41 43 46 49 50 47 44 41 40 45 52 57 55 52 52 52 50 50 49 49 50 53 56 56 58 61 65 67 70 76 84 89 86 79 73 70 70 71 71 70 68 67 67 67 67 68 66 65 65 66 66 67 68 69 71 73 75 76 79 82 85 89 92 93 91 89 89 91 93 91 87 84 83 82 80 78 75 71 68 66 63 62
56 58 54 50 46 44 40 38 40 45 48 49 47 41 38 42 52 57 55 53 52 51 51 51 50 49 50 52 51 51 55 60 63 64 66 73 81 84 80 75 73 72 73 74 75 74 75 75 74 73 73 72 71 70 68 67 66 65 65 65 68 71 74 77 80 82 84 88 92 93 91 88 88 90 90 86 83 82 83 83 81 78 74 70 67 63 60
50 61 65 61 57 52 47 41 36 35 38 43 48 47 41 37 38 46 53 56 53 48 46 48 50 50 50 49 48 48 51 55 61 67 69 72 77 81 80 76 72 68 66 64 64 66 70 74 76 74 72 71 71 71 70 69 67 65 63 62 62 63 66 69 71 71 70 69 70 75 79 78 77 81 87 88 82 77 79 84 86 81 76 72 69 64 59
44 53 57 58 56 56 56 53 47 38 33 35 45 54 53 43 32 29 40 56 61 54 45 43 45 47 48 49 48 47 49 54 60 65 68 68 69 73 76 76 71 67 63 60 58 58 61 65 67 67 66 67 68 69 68 67 66 64 63 61 59 58 60 63 64 65 65 64 64 66 69 68 67 68 73 78 78 73 71 77 85 84 80 75 72 67 62
42 46 50 51 50 48 49 55 60 55 44 38 42 55 63 58 44 34 40 54 65 63 53 46 44 43 44 48 49 48 48 52 58 64 67 69 69 72 74 75 72 68 65 63 61 60 60 61 63 64 65 66 67 68 69 68 67 65 63 60 58 58 60 60 59 59 62 64 67 68 68 66 64 62 61 63 69 73 72 72 76 80 81 80 77 73 67
42 43 45 46 44 39 33 33 42 58 64 59 53 59 71 73 61 47 47 56 67 70 66 58 51 46 44 45 47 49 48 48 52 56 61 67 72 75 76 75 72 68 66 64 63 63 63 63 63 64 64 65 65 65 68 70 71 69 67 63 60 59 59 58 57 56 58 61 66 69 67 64 62 60 60 62 66 69 69 70 73 77 80 81 77 71 63